Regional Weather Roundup
Issued by NWS

Home | Current Version | Previous Version | Graphics & Text | Print | Product List | Glossary On
Versions: 1 2 3 4 5 6 7 8 9 10 11 12 13 14 15 16 17 18 19 20 21 22 23 24 25 26 27 28 29 30 31 32 33 34 35 36 37 38 39 40 41 42 43 44 45 46 47 48 49 50
000
ASUS44 KMEG 221300
RWRTN
TENNESSEE HOURLY STATE WEATHER ROUNDUP
NATIONAL WEATHER SERVICE MEMPHIS TN
700 AM CST WED FEB 22 2017

TNZ002-004-019-021-049-052-054-088>092-221400-
WEST TENNESSEE

CITY           SKY/WX    TMP DP  RH WIND       PRES   REMARKS
MEMPHIS INTL   CLOUDY    59  59 100 E7        29.88F
NWS MEMPHIS      N/A     58 N/A N/A MISG        N/A
JACKSON        CLOUDY    58  57  97 E3        29.90S
UNION CITY     CLOUDY   N/A N/A N/A CALM      29.88S VSB 1/4
PARIS          CLEAR     54  54 100 SE6       29.89F
$$

TNZ008-025-027-028-033-062-065-066-221400-
NORTH MIDDLE TENNESSEE

CITY           SKY/WX    TMP DP  RH WIND       PRES   REMARKS
NASHVILLE      CLOUDY    57  55  93 E5        29.93R FOG
CLARKSVILLE    FAIR      54  53  97 S3        29.91R FOG
SMYRNA         LGT RAIN  55  54  96 NW9       29.92R FOG
CROSSVILLE     LGT RAIN  53  52  96 NE3       29.96R FOG
$$

TNZ061-075-076-078-094-096-097-221400-
SOUTH MIDDLE TENNESSEE

CITY           SKY/WX    TMP DP  RH WIND       PRES   REMARKS
TULLAHOMA      CLOUDY    57  55  94 CALM      29.92S
WINCHESTER     CLOUDY    57  55  94 E3        29.92R
MCMINNVILLE    CLOUDY    55  55 100 E5        29.93S
COLUMBIA       CLEAR    N/A N/A N/A E5        29.87S
SHELBYVILLE    CLOUDY    55  55 100 E3        29.91F
$$

TNZ017-018-042-046-047-221400-
NORTHEAST TENNESSEE

CITY           SKY/WX    TMP DP  RH WIND       PRES   REMARKS
TRI CITIES     LGT RAIN  50  48  93 CALM      30.01R FOG
$$

TNZ012-013-036-069-073-074-221400-
CENTRAL EAST TENNESSEE

CITY           SKY/WX    TMP DP  RH WIND       PRES   REMARKS
KNOXVILLE      LGT RAIN  56  51  84 N5        29.95R
OAK RIDGE      LGT RAIN  55  52  89 E3        29.97R
GATLINBURG     CLOUDY    52  50  93 CALM      29.97R
$$

TNZ083-085-099-221400-
SOUTHEAST TENNESSEE

CITY           SKY/WX    TMP DP  RH WIND       PRES   REMARKS
CHATTANOOGA    CLOUDY    57  54  89 N6        29.93R FOG
$$

SKY/WX REPORTED AS FAIR MEANS FEW OR NO CLOUDS BELOW
12 THOUSAND FEET.




USA.gov is the U.S. government's official web portal to all federal, state and local government web resources and services.